{"data":{"norad_id":54227,"intl_designator":"2022-147A","name":"MATS","alt_names":[],"object_type":"PAYLOAD","status":"ACTIVE","operator":null,"country":"SWED","launch_date":"2022-11-04","launch_site_code":"RLLB","launch_vehicle":null,"mission":null,"orbit_class":"UNKNOWN","rcs_meters":null,"size_class":null,"mass_kg":null,"dimensions":null,"purposes":[],"wikipedia_slug":null,"has_3d_model":false,"image_url":null,"decayed_at":null,"tle_current":{"epoch":"2026-05-24T23:34:25.078080Z","epoch_age_seconds":87149,"freshness":"FRESH","line1":"1 54227U 22147A   26144.98223470  .00002275  00000+0  16380-3 0  9994","line2":"2 54227  97.6823 146.6834 0010540 280.3938  79.6100 15.05186780194279","mean_motion":15.0518678,"eccentricity":0.001054,"inclination_deg":97.6823,"raan_deg":146.6834,"arg_perigee_deg":280.3938,"mean_anomaly_deg":79.61,"bstar":0.0001638,"rev_number":19427,"period_min":95.669189972556,"perigee_km":543.62916070083,"apogee_km":558.23563899571,"semimajor_km":6929.0693998483,"source":"CELESTRAK","updated_at":"2026-05-25T13:37:58.662660Z"}}}